Date String (YYYY-MM-DD hh:mm:ss) UTC,Instrument flags,Ambient pressure (hPa),Sample flow (lpm),Bypass flow (lpm),Sample temperature (°C),Ambient temperature (°C),ASC tube jacket temperature (°C),LED temperature (°C),Box temperature (°C),Sample RH (%),Span deviation,Mass concentration (μg/m³),Mass concentration (μg/m³),Mass concentration (μg/m³)
DateTimeUTC,F1_M11,P_M11,Q1_M11,Q2_M11,T1_M11,T2_M11,T3_M11,T4_M11,T5_M11,U1_M11,ZSPAN_M11,X0_M11,X2_M11,X1_M11
2022-02-01 04:00:00,,0817.0,4.98,0.00,23.9,23.2,00.0,32.9,25.7,08.7,0000.0,0010.25,0005.66,0005.10
2022-02-01 04:01:00,,0817.0,5.02,0.00,23.9,23.2,00.0,32.9,25.7,08.7,0000.0,0011.04,0005.66,0005.10
2022-02-01 04:02:00,,0817.0,4.99,0.00,23.9,23.2,00.0,32.9,25.7,08.8,0000.0,0011.56,0005.69,0005.11
2022-02-01 04:03:00,,0817.0,5.00,0.00,23.9,23.2,00.0,32.9,25.7,08.8,0000.0,0012.05,0005.71,0005.11
2022-02-01 04:04:00,,0817.3,5.01,0.00,23.9,23.2,00.0,32.9,25.7,08.9,0000.0,0011.90,0005.71,0005.12
2022-02-01 04:05:00,,0817.4,5.00,0.00,23.9,23.1,00.0,32.9,25.6,08.9,0000.0,0011.85,0005.70,0005.12
2022-02-01 04:06:00,,0817.0,5.00,0.00,23.9,23.1,00.0,32.9,25.6,09.0,0000.0,0011.93,0005.72,0005.10
2022-02-01 04:07:00,,0817.2,5.01,0.00,23.9,23.1,00.0,32.9,25.6,09.0,0000.0,0012.60,0005.72,0005.10
2022-02-01 04:08:00,,0817.3,4.99,0.00,23.9,23.1,00.0,32.9,25.6,09.1,0000.0,0013.07,0005.73,0005.09
2022-02-01 04:09:00,,0817.4,5.02,0.00,23.9,23.1,00.0,32.9,25.6,09.1,0000.0,0013.07,0005.74,0005.10
2022-02-01 04:10:00,,0817.3,4.99,0.00,23.9,23.1,00.0,32.9,25.6,09.2,0000.0,0013.49,0005.72,0005.09
2022-02-01 04:11:00,,0817.3,5.00,0.00,23.9,23.1,00.0,32.9,25.6,09.1,0000.0,0013.99,0005.71,0005.07
2022-02-01 04:12:00,,0817.2,5.01,0.00,23.9,23.1,00.0,32.9,25.6,09.2,0000.0,0013.44,0005.69,0005.06
2022-02-01 04:13:00,,0817.2,5.00,0.00,23.9,23.1,00.0,32.9,25.6,09.2,0000.0,0013.26,0005.65,0005.02
2022-02-01 04:14:00,,0817.2,5.01,0.00,23.9,23.1,00.0,32.9,25.6,09.1,0000.0,0012.55,0005.60,0004.96
2022-02-01 04:15:00,,0817.2,4.99,0.00,23.9,23.1,00.0,32.9,25.6,09.1,0000.0,0012.34,0005.52,0004.90
2022-02-01 04:16:00,,0817.1,5.00,0.00,23.9,23.1,00.0,32.9,25.7,09.1,0000.0,0011.99,0005.45,0004.86
2022-02-01 04:17:00,,0817.0,5.01,0.00,23.9,23.1,00.0,32.9,25.7,09.1,0000.0,0012.17,0005.41,0004.81
2022-02-01 04:18:00,,0817.0,4.98,0.00,23.9,23.1,00.0,32.8,25.7,09.1,0000.0,0012.25,0005.37,0004.76
2022-02-01 04:19:00,,0817.1,5.01,0.00,23.9,23.1,00.0,32.8,25.6,09.0,0000.0,0012.18,0005.32,0004.70
2022-02-01 04:20:00,,0817.2,4.99,0.00,23.9,23.1,00.0,32.8,25.6,09.0,0000.0,0012.19,0005.25,0004.64
2022-02-01 04:21:00,,0817.3,5.01,0.00,23.9,23.1,00.0,32.8,25.6,09.0,0000.0,0011.92,0005.20,0004.58
2022-02-01 04:22:00,,0817.4,5.00,0.00,23.9,23.1,00.0,32.8,25.6,09.1,0000.0,0011.13,0005.17,0004.53
2022-02-01 04:23:00,,0817.4,4.99,0.00,23.9,23.1,00.0,32.8,25.6,09.2,0000.0,0011.00,0005.13,0004.48
2022-02-01 04:24:00,,0817.4,5.00,0.00,23.9,23.1,00.0,32.8,25.6,09.1,0000.0,0010.86,0005.07,0004.44
2022-02-01 04:25:00,,0817.4,5.01,0.00,23.9,23.1,00.0,32.8,25.6,09.0,0000.0,0011.65,0005.02,0004.42
2022-02-01 04:26:00,,0817.5,4.99,0.00,23.9,23.1,00.0,32.8,25.6,09.0,0000.0,0011.84,0005.04,0004.41
2022-02-01 04:27:00,,0817.5,5.01,0.00,23.9,23.1,00.0,32.8,25.6,09.0,0000.0,0012.05,0005.05,0004.40
2022-02-01 04:28:00,,0817.5,5.01,0.00,23.9,23.1,00.0,32.8,25.6,09.0,0000.0,0011.95,0005.01,0004.40
2022-02-01 04:29:00,,0817.5,4.99,0.00,23.9,23.1,00.0,32.8,25.6,09.0,0000.0,0011.28,0004.99,0004.40
2022-02-01 04:30:00,,0817.5,5.01,0.00,23.9,23.1,00.0,32.8,25.7,09.0,0000.0,0010.58,0004.94,0004.39
2022-02-01 04:31:00,,0817.4,4.99,0.00,23.9,23.1,00.0,32.8,25.6,09.0,0000.0,0010.19,0004.91,0004.39
2022-02-01 04:32:00,,0817.4,5.00,0.00,23.9,23.1,00.0,32.8,25.6,09.0,0000.0,0010.07,0004.88,0004.38
2022-02-01 04:33:00,,0817.5,5.00,0.00,23.9,23.1,00.0,32.8,25.6,09.0,0000.0,0010.23,0004.86,0004.37
2022-02-01 04:34:00,,0817.5,5.00,0.00,23.9,23.1,00.0,32.8,25.6,09.0,0000.0,0010.07,0004.80,0004.36
2022-02-01 04:35:00,,0817.5,5.01,0.00,23.9,23.1,00.0,32.8,25.6,09.0,0000.0,0010.11,0004.77,0004.33
2022-02-01 04:36:00,,0817.6,5.01,0.00,23.9,23.1,00.0,32.8,25.6,09.0,0000.0,0009.19,0004.74,0004.30
2022-02-01 04:37:00,,0817.6,4.99,0.00,23.9,23.1,00.0,32.8,25.7,09.0,0000.0,0009.11,0004.71,0004.28
2022-02-01 04:38:00,,0817.5,5.01,0.00,23.9,23.1,00.0,32.8,25.6,09.0,0000.0,0009.09,0004.69,0004.27
2022-02-01 04:39:00,,0817.4,4.99,0.00,23.9,23.1,00.0,32.8,25.6,08.9,0000.0,0008.84,0004.63,0004.25
2022-02-01 04:40:00,,0817.4,5.01,0.00,23.9,23.1,00.0,32.8,25.6,08.9,0000.0,0008.64,0004.62,0004.21
2022-02-01 04:41:00,,0817.4,5.00,0.00,23.9,23.1,00.0,32.8,25.6,08.7,0000.0,0008.75,0004.61,0004.18
2022-02-01 04:42:00,,0817.4,4.98,0.00,23.9,23.1,00.0,32.8,25.6,08.6,0000.0,0008.82,0004.59,0004.16
2022-02-01 04:43:00,,0817.4,5.00,0.00,23.9,23.1,00.0,32.8,25.6,08.7,0000.0,0008.87,0004.61,0004.14
2022-02-01 04:44:00,,0817.4,5.02,0.00,23.8,23.1,00.0,32.8,25.6,08.6,0000.0,0008.93,0004.61,0004.12
2022-02-01 04:45:00,,0817.4,4.98,0.00,23.8,23.1,00.0,32.8,25.6,08.6,0000.0,0009.68,0004.62,0004.09
2022-02-01 04:46:00,,0817.4,5.01,0.00,23.9,23.1,00.0,32.8,25.6,08.7,0000.0,0009.67,0004.62,0004.08
2022-02-01 04:47:00,,0817.4,5.00,0.00,23.8,23.1,00.0,32.8,25.6,08.6,0000.0,0010.04,0004.59,0004.05
2022-02-01 04:48:00,,0817.5,4.99,0.00,23.8,23.1,00.0,32.8,25.6,08.6,0000.0,0009.86,0004.55,0004.02
2022-02-01 04:49:00,,0817.5,5.00,0.00,23.8,23.1,00.0,32.8,25.6,08.6,0000.0,0010.16,0004.50,0003.98
2022-02-01 04:50:00,,0817.5,5.01,0.00,23.8,23.1,00.0,32.8,25.6,08.6,0000.0,0010.15,0004.48,0003.94
2022-02-01 04:51:00,,0817.5,4.98,0.00,23.8,23.1,00.0,32.8,25.6,08.8,0000.0,0010.32,0004.49,0003.93
2022-02-01 04:52:00,,0817.5,5.00,0.00,23.8,23.1,00.0,32.8,25.6,08.7,0000.0,0010.47,0004.50,0003.93
2022-02-01 04:53:00,,0817.5,5.00,0.00,23.8,23.0,00.0,32.8,25.6,08.8,0000.0,0010.44,0004.47,0003.90
2022-02-01 04:54:00,,0817.6,5.00,0.00,23.8,23.0,00.0,32.8,25.5,08.8,0000.0,0010.75,0004.40,0003.86
2022-02-01 04:55:00,,0817.6,5.00,0.00,23.8,23.0,00.0,32.8,25.6,08.9,0000.0,0010.75,0004.35,0003.83
2022-02-01 04:56:00,,0817.5,5.00,0.00,23.8,23.0,00.0,32.8,25.6,08.8,0000.0,0010.36,0004.33,0003.81
2022-02-01 04:57:00,,0817.6,4.99,0.00,23.8,23.0,00.0,32.8,25.6,08.9,0000.0,0010.09,0004.31,0003.79
2022-02-01 04:58:00,,0817.6,5.00,0.00,23.8,23.0,00.0,32.8,25.6,08.9,0000.0,0009.58,0004.29,0003.77
2022-02-01 04:59:00,,0817.6,5.00,0.00,23.8,23.0,00.0,32.8,25.5,08.9,0000.0,0009.53,0004.30,0003.74
